This is the latest recevied weather packets stored in our database for station/object CE3PA-5. If no packets are shown the sender has not sent any weather packets the latest 10 day(s).
| Time | Temp. | Humidity | Pressure | Rain* | Wind** | Luminosity | Snow |
|---|---|---|---|---|---|---|---|
| 1777726548 | 16.11° C | 19% | 758.1 hPa | - | - | - | - |
| 1777725647 | 13.33° C | 19% | 758 hPa | - | - | - | - |
| 1777724747 | 10.56° C | 20% | 757.9 hPa | - | - | - | - |
| 1777722947 | 6.11° C | 21% | 757.9 hPa | - | - | - | - |
| 1777721151 | 6.11° C | 21% | 757.8 hPa | - | - | - | - |
| 1777720250 | 6.11° C | 21% | 757.6 hPa | - | - | - | - |
| 1777718450 | 5.56° C | 21% | 757.5 hPa | - | - | - | - |
| 1777717549 | 5° C | 21% | 757.7 hPa | - | - | - | - |
| 1777716650 | 5° C | 21% | 757.7 hPa | - | - | - | - |
| 1777715748 | 5° C | 21% | 757.7 hPa | - | - | - | - |
| 1777714848 | 5° C | 21% | 757.7 hPa | - | - | - | - |
| 1777713948 | 4.44° C | 22% | 757.8 hPa | - | - | - | - |
| 1777713048 | 5° C | 21% | 757.9 hPa | - | - | - | - |
| 1777711248 | 5° C | 22% | 758 hPa | - | - | - | - |
| 1777710347 | 5° C | 22% | 757.9 hPa | - | - | - | - |
| 1777707648 | 5.56° C | 22% | 758.1 hPa | - | - | - | - |
| 1777706747 | 5.56° C | 22% | 758.2 hPa | - | - | - | - |
| 1777705847 | 5.56° C | 22% | 758.3 hPa | - | - | - | - |
| 1777704947 | 5.56° C | 22% | 758.3 hPa | - | - | - | - |
| 1777704046 | 5.56° C | 22% | 758.3 hPa | - | - | - | - |
| 1777703146 | 6.11° C | 22% | 758.4 hPa | - | - | - | - |
| 1777702246 | 5.56° C | 22% | 758.5 hPa | - | - | - | - |
| 1777701346 | 5.56° C | 22% | 758.5 hPa | - | - | - | - |
| 1777700449 | 6.11° C | 22% | 758.5 hPa | - | - | - | - |
| 1777699549 | 6.11° C | 22% | 758.6 hPa | - | - | - | - |
* Rain since midnight (hover to see other rain measurements)
** Current wind speed in m/s (hover to see current wind gust speed)